Weather reports worldwide

Advertisment
Coria/Tabacoa, Spain (8251): temperature & dewpoint: 18.01.2020 02:00:00 - 24.01.2020 02:00:00 (CET)Coria/Tabacoa, Spain (8251): wind speed & gusts: 18.01.2020 02:00:00 - 24.01.2020 02:00:00 (CET)Coria/Tabacoa, Spain (8251): wind direction: 18.01.2020 02:00:00 - 24.01.2020 02:00:00 (CET)Coria/Tabacoa, Spain (8251): reduced air pressure: 18.01.2020 02:00:00 - 24.01.2020 02:00:00 (CET)Coria/Tabacoa, Spain (8251): visibility: 18.01.2020 02:00:00 - 24.01.2020 02:00:00 (CET)Coria/Tabacoa, Spain (8251): sunshine duration: 18.01.2020 02:00:00 - 24.01.2020 02:00:00 (CET)Coria/Tabacoa, Spain (8251): precipitation: 18.01.2020 02:00:00 - 24.01.2020 02:00:00 (CET)
Date & Time tt [°C] td [°C] ff [km/h] ff [kn] fx [km/h] fx [kn] dd ppp [hPa] vv [km] sd [min] rr [mm]
24.01.2020 02:00:00 8,1 7,6 13 7 23 13 E 1019,0 13 0 0,0
24.01.2020 01:00:00 8,1 7,6 13 7 27 14 E 1019,1 7 0 -
24.01.2020 00:00:00 8,2 7,4 17 9 27 15 E 1019,0 12 0 0,0
23.01.2020 23:00:00 8,2 7,3 15 8 27 14 E 1018,7 15 0 0,0
23.01.2020 22:00:00 8,2 7,1 18 10 31 17 E 1018,3 20 0 0,0
23.01.2020 21:00:00 8,0 7,1 18 10 33 18 E 1018,0 17 0 0,0
23.01.2020 20:00:00 8,1 7,0 22 12 37 20 E 1017,7 14 0 0,0
23.01.2020 19:00:00 8,1 6,7 22 12 39 21 E 1017,2 20 0 -
23.01.2020 18:00:00 8,2 6,7 21 12 39 21 E 1016,7 20 0 0,0
23.01.2020 17:00:00 8,0 6,8 22 12 41 22 E 1016,5 14 0 0,0
23.01.2020 16:00:00 7,5 6,5 21 12 42 23 E 1016,6 12 0 0,4
23.01.2020 15:00:00 7,2 6,1 27 14 45 25 E 1017,0 14 0 0,2
23.01.2020 14:00:00 6,9 5,9 26 14 50 27 E 1017,6 20 0 0,4
23.01.2020 13:00:00 7,1 5,8 26 14 49 27 E 1018,0 8 0 -
23.01.2020 12:00:00 7,1 5,5 28 15 42 23 E 1018,5 20 0 0,0
23.01.2020 11:00:00 6,7 5,8 24 13 42 23 E 1017,9 20 0 0,2
23.01.2020 10:00:00 6,2 5,5 22 12 39 21 E 1017,5 10 0 0,6
23.01.2020 09:00:00 6,2 5,6 19 11 35 19 E 1017,1 10 0 1,6
23.01.2020 08:00:00 6,4 5,6 19 10 37 20 E 1016,7 7 0 0,8
23.01.2020 07:00:00 6,5 5,6 23 12 39 21 E 1016,4 11 0 -
23.01.2020 06:00:00 6,8 5,8 20 11 40 22 E 1016,4 10 0 1,0
23.01.2020 05:00:00 7,3 5,8 23 13 35 19 E 1016,7 9 0 0,2
23.01.2020 04:00:00 7,3 5,9 16 8 33 18 E 1016,9 20 0 0,8
23.01.2020 03:00:00 7,8 5,5 16 9 29 16 E 1016,7 5 0 0,0
23.01.2020 02:00:00 7,9 5,3 11 6 44 24 E 1016,9 20 0 0,2
23.01.2020 01:00:00 8,8 4,6 21 11 37 20 E 1016,9 20 0 -
23.01.2020 00:00:00 8,0 4,3 8 5 15 8 E 1017,1 20 0 0,0
22.01.2020 23:00:00 8,6 4,3 8 4 13 7 E 1016,9 20 0 0,0
22.01.2020 22:00:00 8,9 3,9 5 3 15 8 E 1016,9 20 0 0,0
22.01.2020 21:00:00 9,8 3,8 8 5 17 9 E 1016,5 20 0 0,0
22.01.2020 20:00:00 9,8 4,3 8 5 15 8 ENE 1016,2 20 0 0,0
22.01.2020 19:00:00 9,6 4,6 7 4 11 6 E 1016,3 20 0 -
22.01.2020 18:00:00 10,2 4,8 7 4 26 14 E 1016,0 20 2 0,0
22.01.2020 17:00:00 10,7 4,8 14 7 34 18 E 1016,0 20 0 0,0
22.01.2020 16:00:00 10,7 4,8 24 13 44 24 E 1016,1 20 0 0,0
22.01.2020 15:00:00 10,6 5,1 22 12 41 22 E 1016,5 20 0 0,0
22.01.2020 14:00:00 10,4 5,1 27 14 51 28 E 1017,3 20 5 0,0
22.01.2020 13:00:00 9,9 4,6 29 16 50 27 E 1018,1 20 0 -
22.01.2020 12:00:00 10,0 4,3 29 15 48 26 E 1018,3 20 3 0,0
22.01.2020 11:00:00 8,7 4,3 13 7 22 12 E 1018,5 20 0 0,0
22.01.2020 10:00:00 8,0 3,4 9 5 29 16 ENE 1018,2 20 0 0,0
22.01.2020 09:00:00 7,8 3,0 12 6 24 13 E 1017,8 20 0 0,0
22.01.2020 08:00:00 7,9 3,0 6 4 30 16 ENE 1017,2 20 0 0,0
22.01.2020 07:00:00 8,6 3,0 17 9 32 18 NE 1016,7 20 0 -
22.01.2020 06:00:00 8,3 2,9 14 7 29 15 ENE 1017,0 20 0 0,0
22.01.2020 05:00:00 6,0 2,7 1 1 10 5 W 1017,6 20 0 0,0
22.01.2020 04:00:00 6,2 2,5 6 4 10 6 E 1018,0 20 0 0,0
22.01.2020 03:00:00 6,0 2,1 4 2 20 11 ESE 1017,9 20 0 0,0
22.01.2020 02:00:00 7,1 1,9 11 6 33 18 ENE 1018,2 20 0 0,0
22.01.2020 01:00:00 7,2 1,9 20 11 31 17 NNE 1018,0 20 0 -
22.01.2020 00:00:00 7,4 2,5 14 8 33 18 ENE 1018,1 20 0 0,0
21.01.2020 23:00:00 8,2 2,3 16 9 30 16 NE 1017,7 20 0 0,0
21.01.2020 22:00:00 8,4 2,7 16 9 37 20 ENE 1016,8 20 0 0,0
21.01.2020 21:00:00 8,6 2,1 12 6 42 23 ENE 1016,9 20 0 0,0
21.01.2020 20:00:00 9,1 1,9 21 12 43 23 NE 1016,6 20 0 0,0
21.01.2020 19:00:00 9,3 1,7 19 10 44 24 ENE 1016,4 20 0 -
21.01.2020 18:00:00 9,3 1,3 26 14 46 25 NE 1016,3 20 0 0,0
21.01.2020 17:00:00 9,2 1,7 26 14 50 27 NE 1016,3 20 6 0,0
21.01.2020 16:00:00 9,1 1,1 22 12 51 28 NE 1016,7 20 30 0,0
21.01.2020 15:00:00 9,6 0,6 26 14 49 26 NE 1017,1 20 46 0,0
21.01.2020 14:00:00 10,2 0,4 31 17 50 27 NE 1017,5 20 60 0,0
21.01.2020 13:00:00 10,1 0,2 24 13 49 27 NE 1018,7 20 60 -
21.01.2020 12:00:00 7,8 -0,7 24 13 58 31 NE 1020,1 20 60 0,0
21.01.2020 11:00:00 8,1 -1,0 29 16 52 28 NE 1020,3 20 60 0,0
21.01.2020 10:00:00 6,8 -1,7 22 12 55 30 NE 1020,3 20 45 0,0
21.01.2020 09:00:00 5,5 -2,0 28 15 46 25 NNE 1020,6 20 0 0,0
21.01.2020 08:00:00 5,5 -1,7 17 9 49 26 NNE 1021,0 20 0 0,0
21.01.2020 07:00:00 5,7 -2,2 29 16 58 31 NE 1020,8 20 0 -
21.01.2020 06:00:00 5,3 -2,2 24 13 47 25 ENE 1021,5 20 0 0,0
21.01.2020 05:00:00 6,2 -2,0 30 16 56 30 NE 1021,2 20 0 0,0
21.01.2020 04:00:00 5,6 -2,0 31 17 56 31 NE 1021,9 20 0 0,0
21.01.2020 03:00:00 5,4 -1,4 23 12 55 30 NNE 1022,4 20 0 0,0
21.01.2020 02:00:00 5,3 -1,7 26 14 58 31 NNE 1022,9 20 0 0,0
21.01.2020 01:00:00 5,6 -2,2 26 14 52 28 NE 1023,6 20 0 -
21.01.2020 00:00:00 5,8 -3,0 27 15 49 26 NE 1023,7 20 0 0,0
20.01.2020 23:00:00 6,4 -3,0 26 14 56 31 NE 1023,1 20 0 0,0
20.01.2020 22:00:00 6,7 -3,6 32 17 57 31 NE 1022,9 20 0 0,0
20.01.2020 21:00:00 6,6 -3,9 29 16 55 30 NE 1023,0 20 0 0,0
20.01.2020 20:00:00 6,6 -4,2 29 16 58 31 NE 1022,9 20 0 0,0
20.01.2020 19:00:00 6,8 -4,8 28 15 49 26 NE 1022,6 20 0 -
20.01.2020 18:00:00 7,7 -4,8 29 15 56 31 NE 1022,2 20 52 0,0
20.01.2020 17:00:00 7,9 -4,5 32 18 60 32 NE 1022,0 20 58 0,0
20.01.2020 16:00:00 8,6 -4,5 31 17 66 36 NE 1022,1 20 54 0,0
20.01.2020 15:00:00 8,4 -4,8 29 16 64 35 NE 1022,6 20 44 0,0
20.01.2020 14:00:00 7,6 -5,4 33 18 66 36 NE 1023,5 20 41 0,0
20.01.2020 13:00:00 7,8 -6,4 32 17 60 33 NE 1024,5 20 60 -
20.01.2020 12:00:00 7,1 -6,0 33 18 55 30 NE 1024,9 20 60 0,0
20.01.2020 11:00:00 5,9 -6,0 31 17 - - NE - 20 - -
20.01.2020 10:00:00 - - - - - - - - - - -
20.01.2020 09:00:00 - - - - - - - - - - -
20.01.2020 08:00:00 - - - - - - - - - - -
20.01.2020 07:00:00 - - - - - - - - - - -
20.01.2020 06:00:00 - - - - - - - - - - -
20.01.2020 05:00:00 - - - - - - - - - - -
20.01.2020 04:00:00 - - - - - - - - - - -
20.01.2020 03:00:00 - - - - - - - - - - -
20.01.2020 02:00:00 - - - - - - - - - - -
20.01.2020 01:00:00 - - - - - - - - - - -
20.01.2020 00:00:00 - - - - - - - - - - -
19.01.2020 23:00:00 - - - - - - - - - - -
19.01.2020 22:00:00 6,8 -6,5 40 22 81 44 NE - - 0 0,0
19.01.2020 21:00:00 7,6 -7,5 34 19 66 35 NE 1026,8 20 0 0,0
19.01.2020 20:00:00 8,5 -6,7 30 16 61 33 NE 1026,2 20 0 0,0
19.01.2020 19:00:00 9,5 -5,4 28 15 63 34 NNE 1025,6 20 21 -
19.01.2020 18:00:00 11,0 -4,8 32 18 62 34 NNE 1024,7 20 60 0,0
19.01.2020 17:00:00 12,0 -3,3 22 12 61 33 E 1024,6 20 60 0,0
19.01.2020 16:00:00 12,6 -2,7 26 14 65 35 ENE 1024,8 20 60 0,0
19.01.2020 15:00:00 12,6 -3,6 31 17 79 42 NE 1024,2 20 60 0,0
19.01.2020 14:00:00 12,6 -1,4 25 13 61 33 ENE 1024,9 20 60 0,2
19.01.2020 13:00:00 12,6 0,0 27 15 56 31 NE 1025,1 20 60 -
19.01.2020 12:00:00 12,7 2,5 25 13 47 25 NE 1025,6 20 59 0,0
19.01.2020 11:00:00 10,7 4,4 11 6 - - N - 20 - -
19.01.2020 10:00:00 - - - - - - - - - - -
19.01.2020 09:00:00 - - - - - - - - - - -
19.01.2020 08:00:00 - - - - - - - - - - -
19.01.2020 07:00:00 - - - - - - - - - - -
19.01.2020 06:00:00 - - - - - - - - - - -
19.01.2020 05:00:00 - - - - - - - - - - -
19.01.2020 04:00:00 - - - - - - - - - - -
19.01.2020 03:00:00 - - - - - - - - - - -
19.01.2020 02:00:00 - - - - - - - - - - -
19.01.2020 01:00:00 8,7 4,3 4 2 18 10 W - - 0 -
19.01.2020 00:00:00 8,7 4,1 11 6 22 12 NW - - 0 0,0
18.01.2020 23:00:00 9,7 6,8 8 5 29 15 NNW - - 0 0,0
18.01.2020 22:00:00 9,4 7,4 10 5 28 15 W - - 0 0,0
18.01.2020 21:00:00 9,9 8,4 14 8 28 15 W 1023,1 20 0 0,0
18.01.2020 20:00:00 11,3 11,0 10 5 19 10 WNW 1022,8 20 0 0,0
18.01.2020 19:00:00 10,9 10,4 7 4 11 6 WNW 1022,9 20 0 -
18.01.2020 18:00:00 11,4 11,0 5 3 9 5 WSW 1023,0 20 0 0,0
18.01.2020 17:00:00 11,3 11,0 7 4 12 6 NW 1024,1 20 0 0,0
18.01.2020 16:00:00 11,2 10,9 5 3 12 7 WNW 1024,7 20 0 0,0
18.01.2020 15:00:00 10,9 10,6 8 4 14 8 ESE 1025,3 8 0 0,2
18.01.2020 14:00:00 10,6 10,4 10 6 24 13 E 1026,3 20 0 0,0
18.01.2020 13:00:00 10,0 9,8 8 4 22 12 E 1027,7 8 0 -
18.01.2020 12:00:00 9,3 9,2 16 8 32 18 E 1028,6 6 0 0,2
18.01.2020 11:00:00 8,9 8,8 17 9 65 35 E 1029,0 4,5 0 0,8
18.01.2020 10:00:00 8,7 8,5 19 10 35 19 E 1028,6 6 0 0,8
18.01.2020 09:00:00 8,6 8,4 19 11 36 19 E 1028,6 6 0 0,8
18.01.2020 08:00:00 8,7 8,4 19 11 32 17 E 1028,8 2,6 0 0,8
18.01.2020 07:00:00 9,0 8,7 18 10 32 17 E 1029,4 7 0 -
18.01.2020 06:00:00 8,8 8,4 11 6 21 11 E 1029,7 6 0 2,4
18.01.2020 05:00:00 8,4 7,7 12 7 20 11 ENE 1029,4 16 0 1,4
18.01.2020 04:00:00 8,5 7,1 11 6 18 10 E 1030,0 9 0 1,0
18.01.2020 03:00:00 9,2 5,9 10 6 13 7 E 1030,3 20 0 0,0
18.01.2020 02:00:00 9,2 5,8 9 5 13 7 E 1031,4 20 0 0,0

tt = temperature
td = dewpoint
ff = wind speed
fx = gusts
dd = wind direction
ppp = reduced air pressure
vv = visibility
sd = sunshine duration
rr = precipitation

Next stations